#timestamp,LO_Frequency,Hit,StdDev 
1579147215.9,286047000.9,N
1579147235.7,286046998.5,N
1579147255.5,286047000.4,N
1579147275.4,286047000.3,N
1579147295.2,286047000.9,N
1579147315.0,286047002.8,N
1579147315.9,286047002.8,N
1579147335.8,286047000.2,N
1579147355.6,286047004.3,N
1579147375.5,286047001.4,N
1579147395.3,286047002.6,N
1579147415.1,286047000.5,N
1579147435.9,286047000.5,N
1579147455.7,286047000.7,N
1579147475.5,286046999.7,N
1579147495.4,286047001.7,N
1579147515.2,286047003.1,N
1579147535.1,286047001.7,N
1579147536.0,286047001.7,N
1579147555.8,286047002.9,N
1579147575.6,286047003.7,N
1579147595.5,286047002.7,N
1579147615.3,286046999.7,N
1579147635.1,286046998.3,N
1579147655.9,286047000.9,N
1579147675.7,286046998.2,N
1579147695.6,286046999.0,N
1579147715.4,286047000.9,N
1579147735.2,286047001.2,N
1579147755.1,286046999.5,N
1579147756.0,286046999.5,N
1579147775.8,286046996.9,N
1579147795.6,286046995.3,N
1579147815.5,286046993.4,Y
1579147835.3,286046991.9,P
1579147855.2,286046992.8,N
1579147875.9,286046993.0,N
1579147895.7,286046993.1,N
1579147915.6,286046992.0,N
1579147935.4,286046992.2,N
1579147955.2,286046993.1,N
1579147975.1,286046991.4,Y
1579147976.0,286046991.4,P
1579147995.8,286046996.5,P
1579148015.7,286046999.3,N
1579148035.5,286046997.4,N
1579148055.3,286046997.5,N
1579148075.2,286046997.4,N
1579148095.0,286046995.2,N
1579148095.9,286046995.2,N
1579148115.8,286046995.5,N
1579148135.6,286046999.1,N
1579148155.4,286046995.2,N
1579148175.3,286046995.0,N
1579148195.1,286046996.6,N
1579148215.8,286046996.9,N
1579148235.7,286046997.3,N
1579148255.5,286046995.1,N
1579148275.4,286046998.0,N
1579148295.2,286046995.6,N
1579148315.0,286046993.7,Y
1579148315.9,286046993.7,P
1579148335.8,286046999.2,N
1579148355.6,286046997.8,N
1579148375.4,286046999.4,N
1579148395.3,286046996.6,N
1579148415.1,286046999.1,N
1579148435.9,286047001.1,N
1579148455.7,286047000.3,N
1579148475.5,286047002.2,N
1579148495.4,286047004.2,N
1579148515.2,286047003.4,N
1579148535.0,286047005.9,N
1579148535.9,286047005.9,N
1579148585.8,286047003.2,E
1579148595.7,286047004.3,N
1579148615.6,286047000.7,P
1579148635.4,286046999.4,N
1579148655.2,286047000.3,N
1579148675.1,286047001.0,N
1579148676.0,286047001.0,N
1579148695.8,286047000.5,N
1579148715.7,286047001.0,N
1579148735.5,286047001.2,N
1579148755.3,286046998.6,N
1579148775.2,286046998.8,N
1579148795.0,286046998.1,N
1579148795.9,286046998.1,N
1579148815.7,286047001.8,N
1579148835.6,286047000.8,N
1579148855.4,286046998.5,N
1579148875.3,286046998.2,N
1579148895.1,286047000.6,N
1579148896.0,286047000.6,N
1579148915.8,286046998.6,N
1579148935.7,286046998.3,N
1579148955.5,286046998.3,N
1579148975.4,286047002.1,N
1579148995.2,286047002.7,N
1579149015.0,286047000.8,N
1579149015.9,286047000.8,N
1579149035.8,286046998.4,N
1579149055.6,286046998.6,N
1579149075.4,286047000.6,N
1579149095.3,286047000.4,N
1579149115.1,286046999.8,N
1579149135.9,286047002.7,N
1579149155.7,286046999.9,N
1579149175.5,286047000.6,N
1579149195.4,286046998.7,N
1579149215.2,286046999.0,N
1579149235.0,286047001.1,N
1579149235.9,286047001.1,N
1579149255.8,286047001.0,N
1579149275.6,286046998.8,N
1579149295.5,286046998.1,N
1579149315.3,286047000.2,N
1579149335.1,286046999.0,N
1579149355.9,286046997.1,N
1579149375.7,286046997.5,N
1579149395.6,286046995.3,Y
1579149415.4,286046997.9,P
1579149435.2,286046999.0,N
1579149455.1,286046999.3,N
1579149456.0,286046999.3,N
1579149475.8,286046999.9,N
1579149495.6,286047000.9,N
1579149515.5,286047001.2,N
1579149535.3,286046998.1,N
1579149555.2,286046997.0,N
1579149575.9,286046999.0,N
1579149595.7,286046997.6,N
1579149615.6,286046999.1,N
1579149635.4,286046998.3,N
1579149655.2,286047000.4,N
1579149675.1,286047001.1,N
1579149676.0,286047001.1,N
1579149695.8,286046998.5,N
1579149715.7,286046998.3,N
1579149735.5,286046996.6,N
1579149755.3,286046999.6,N
1579149775.2,286046996.9,N
1579149795.0,286046997.1,N
1579149795.9,286046997.1,N
1579149815.8,286046998.0,N
1579149835.6,286046998.0,N
1579149855.4,286046996.8,N
1579149875.3,286046997.0,N
1579149895.1,286047000.7,N
1579149915.8,286046998.3,N
1579149935.7,286046998.1,N
1579149955.5,286046999.9,N
1579149975.4,286046999.2,N
1579149995.2,286046999.0,N
1579150015.0,286046998.2,N
1579150015.9,286046998.2,N
1579150035.8,286046997.7,N
1579150055.6,286046997.3,N
1579150075.4,286046996.6,N
1579150095.3,286046998.2,N
1579150115.1,286046998.5,N
1579150135.9,286047001.1,N
1579150155.7,286046999.4,N
1579150175.5,286046999.6,N
1579150195.4,286046997.1,N
1579150215.2,286046999.1,N
1579150235.0,286046999.3,N
1579150236.0,286046999.3,N
1579150255.8,286046997.1,N
1579150275.6,286046996.6,N
1579150295.5,286046994.9,Y
1579150315.3,286046997.4,P
1579150335.1,286046995.3,P
1579150355.9,286046997.7,N
1579150375.7,286046996.5,Y
1579150395.6,286047001.0,P
1579150415.4,286047000.2,N
1579150465.3,286046996.8,E
1579150475.2,286046998.5,N
1579150495.0,286046998.2,P
1579150495.9,286046998.2,P
1579150515.8,286046998.4,Y
1579150535.6,286047002.5,P
1579150555.4,286047001.7,N
1579150575.3,286047005.6,P
1579150595.1,286047003.6,N
1579150615.9,286047003.7,N
1579150635.7,286047004.4,N
1579150655.5,286047003.6,N
1579150675.4,286047003.7,N
1579150695.2,286047005.1,N
1579150715.0,286047005.8,N
1579150715.9,286047005.8,N
1579150735.8,286047003.7,N
1579150755.6,286047005.2,N
1579150775.5,286047004.6,N
1579150795.3,286047009.0,Y
